Regional Weather Roundup
Issued by NWS

Home | Current Version | Previous Version | Graphics & Text | Print | Product List | Glossary On
Versions: 1 2 3 4 5 6 7 8 9 10 11 12 13 14 15 16 17 18 19 20 21 22 23 24 25 26 27 28 29 30 31 32 33 34 35 36 37 38 39 40 41 42 43 44 45 46 47 48 49 50
000
ASUS43 KMKX 300700
RWRWI

WISCONSIN REGIONAL WEATHER ROUNDUP
NATIONAL WEATHER SERVICE MILWAUKEE/SULLIVAN WI
200 AM CDT TUE SEP 30 2014

NOTE: "FAIR" INDICATES FEW OR NO CLOUDS BELOW 12,000 FEET WITH NO
SIGNIFICANT WEATHER AND/OR OBSTRUCTIONS TO VISIBILITY.

WIZ001-002-006>008-014>016-023>028-300800-
NORTHWEST WISCONSIN

CITY           SKY/WX    TMP DP  RH WIND       PRES   REMARKS
SUPERIOR ARPT  CLOUDY    44  39  82 SE12      30.17F
ASHLAND        CLOUDY    43  39  86 E8        30.17F
HAYWARD        CLOUDY    41  39  93 E6        30.15S
SIREN          CLOUDY    42  39  89 E3        30.15S
CUMBERLAND     CLOUDY    39  36  87 E8        30.14R WCI  34
RICE LAKE      CLOUDY    41  37  86 NE7       30.16S
CHETEK         CLOUDY    41  38  89 NE6       30.14S
LADYSMITH      CLOUDY    41  38  88 N6        30.16R
EAU CLAIRE     CLOUDY    43  37  79 NE10      30.13R
MENOMONIE      CLOUDY    43  38  82 NE10      30.13S
NEW RICHMOND   CLOUDY    42  39  91 E6        30.13R
OSCEOLA        CLOUDY    43  42  96 NE8       30.16S
$$

WIZ003>005-009-010-017-018-300800-
NORTH CENTRAL WISCONSIN

CITY           SKY/WX    TMP DP  RH WIND       PRES   REMARKS
MANITOWISH WTR CLOUDY    37  37 100 NE7       30.14S WCI  31
ARBOR VITAE    CLOUDY    39  37  93 NE3       30.13F
WOODRUFF       CLOUDY    39  37  93 NE3       30.13F
RHINELANDER    CLOUDY    37  36  96 NE8       30.13F WCI  31
EAGLE RIVER    CLOUDY    38  37  98 N8        30.13S WCI  32
LAND O LAKES   CLOUDY    38  37  98 NE7       30.14F FOG     WCI  32
PHILLIPS       CLOUDY    38  36  93 NE7       30.13F WCI  32
TOMAHAWK       CLOUDY    38  35  89 NE6       30.14R WCI  33
MEDFORD        CLOUDY    38  35  90 NE10      30.12S WCI  31
MERRILL        CLOUDY    39  37  92 NE9       30.12S WCI  33
$$

WIZ029-030-035-036-043>047-300800-
CENTRAL WISCONSIN

CITY           SKY/WX    TMP DP  RH WIND       PRES   REMARKS
WAUSAU         CLOUDY    40  36  86 NE8       30.11F WCI  34
MOSINEE        CLOUDY    39  37  93 E10       30.13S WCI  32
MARSHFIELD     CLOUDY    42  37  82 E9        30.11R
STEVENS POINT  CLOUDY    39  35  85 NE10      30.12R WCI  32
WAUPACA        CLOUDY    45  39  81 N8        30.12R
WAUTOMA        NOT AVBL
WISC RAPIDS    CLOUDY    44  38  79 NE8       30.13R
CAMP DOUGLAS   CLOUDY    45  45 100 NE8       30.11R
$$

WIZ011>013-019>022-031-037>040-048>050-300800-
NORTHEAST WISCONSIN

CITY           SKY/WX    TMP DP  RH WIND       PRES   REMARKS
ANTIGO         CLOUDY    38  36  93 N10       30.13S WCI  30
SHAWANO        CLOUDY    44  39  81 N12G18    30.13S
OCONTO         CLOUDY    43  39  88 N12       30.11S
STURGEON BAY   NOT AVBL
GREEN BAY      CLOUDY    43  38  82 N13       30.11S
MANITOWOC      NOT AVBL
APPLETON       CLOUDY    43  36  75 N13       30.11S
CLINTONVILLE   CLOUDY    43  36  75 N6        30.12S
OSHKOSH        CLOUDY    45  39  79 N14       30.10S
$$

WIZ032>034-041-042-053>061-300800-
SOUTHWEST WISCONSIN

CITY           SKY/WX    TMP DP  RH WIND       PRES   REMARKS
LA CROSSE      PTCLDY    46  41  82 N5        30.11R
SPARTA         CLOUDY    45  43  93 N3        30.11R
VIROQUA        CLOUDY    46  46 100 E6        30.07S
BOSCOBEL       CLOUDY    53  46  77 VRB5      30.07R
PRAIRIE DU CHI CLOUDY    54  46  76 E8        30.06R
PLATTEVILLE    CLOUDY    51  49  90 NE10      30.06R
$$

WIZ056-057-062-063-064-067-068-300800-
SOUTH CENTRAL WISCONSIN

CITY           SKY/WX    TMP DP  RH WIND       PRES   REMARKS
REEDSBURG      CLOUDY    48  45  88 NE9       30.08R
BARABOO/DELLS  CLOUDY    46  42  87 E6        30.09R
LONE ROCK      NOT AVBL
MINERAL POINT  CLOUDY    50  46  87 NE9       30.06R
MADISON        CLOUDY    47  42  83 NE13      30.09R
MIDDLETON      CLOUDY    49  45  87 NE9       30.09R
WATERTOWN      CLOUDY    47  44  88 N8        30.07R
MONROE         CLOUDY    50  48  93 N10       30.05R
JANESVILLE     CLOUDY    52  43  71 N10       30.05S
$$

WIZ051-052-058>065-066-070>072-300800-
SOUTHEAST WISCONSIN

CITY           SKY/WX    TMP DP  RH WIND       PRES   REMARKS
MILWAUKEE      CLOUDY    48  42  80 N15G25    30.07R
WAUKESHA       DRIZZLE   45  43  93 NE6       30.08R
MILWAUKEE/TIMM CLOUDY    45  39  81 NE10      30.08R
RACINE         LGT RAIN  48  44  86 N16G23    30.07R
BURLINGTON     CLOUDY    46  43  89 NE14      30.06R
KENOSHA        CLOUDY    49  44  83 N8G18     30.06R
FOND DU LAC    CLOUDY    45  39  79 NE16      30.09S
SHEBOYGAN      NOT AVBL
WEST BEND      CLOUDY    45  37  76 N8        30.08R
JUNEAU         CLOUDY    46  42  87 N10       30.09R
$$

LSZ147-162-300800-
LAKE SUPERIOR

STATION/POSITION TIME  TEMP    WIND        PRES    WAVE
                       AIR SEA DIR/SP/G            HT/PER
                 (UTC) (F)     (DEG/KT/KT) (MB)    (FT/S)
W MID LAKE BUOY  0550   44 49   50/ 10/ 14 1022.6F   4/ 7
DEVILS ISLAND    0600   44      60/ 14/ 18 1023.1F
SAXON HARBOR     0600   45      90/  4/  7 1022.4
$$

LMZ867-665-643>646-300800-
LAKE MICHIGAN

STATION/POSITION TIME  TEMP    WIND        PRES    WAVE
                       AIR SEA DIR/SP/G            HT/PER
                 (UTC) (F)     (DEG/KT/KT) (MB)    (FT/S)
CHAMBERS ISLAND  0600   47     340/ 21/ 26 1019.0S
S GREEN BAY BUOY 0600   47                 1020.2
N MID LAKE BUOY  0550   47 58  350/ 21/ 27 1017.5R   4/ 5
NORTHPORT PIER   0600   47     350/ 23/ 28 1018.6S
KEWAUNEE LAKESHO 0600   45     340/  9/ 12 1017.7S
SHEBOYGAN LAKESH 0600   46 55   10/ 21/ 25 1018.9R
PORT WASHINGTON  0600          350/  7/ 12 1019.0
ATWATER BUOY     0600   51      30/ 21/ 25 1018.5R
MILWAUKEE LAKESH 0600          360/ 16/ 20   N/A
S MID LAKE BUOY  0550   53 62  350/ 19/ 25 1016.2R   7/ 7
KENOSHA   LAKESH 0600           20/ 22/ 29 1016.9R
$$

TC  - TEMPERATURE IN CELSIUS
VSB - VISIBILITY IN STATUTE MILES
WCI - WIND CHILL INDEX
HX  - HEAT INDEX



USA.gov is the U.S. government's official web portal to all federal, state and local government web resources and services.